Location: Altmatt
(47.1333°N, 8.7000°E)
Time: 18:00:59
(UTC+00:00)

Cosmos 2369 Rocket - Pass Details

Date: 13 July 2020
Orbit: 829 x 852 km, 71.0° (Epoch: 12 August)

Event Time Altitude Azimuth Distance (km) Brightness Sun altitude
Rises 23:18:54 0° 324° (NW) 3,385 6.3 -21.2°
Reaches altitude 10° 23:21:37 10° 314° (NW) 2,448 5.2 -21.2°
Maximum altitude 23:26:20 29° 256° (WSW) 1,503 3.4 -21.2°
Enters shadow 23:27:37 26° 233° (SW) 1,592 3.3 -21.2°
